TimeCST,TemperatureF,Dew PointF,Humidity,Sea Level PressureIn,VisibilityMPH,Wind Direction,Wind SpeedMPH,Gust SpeedMPH,PrecipitationIn,Events,Conditions,WindDirDegrees,DateUTC
12:54 AM,6.1,1.9,83,30.30,10.0,ESE,4.6,-,N/A,,Overcast,120,2011-11-20 06:54:00
1:28 AM,5.0,1.4,85,30.17,10.0,SE,5.8,-,N/A,,Overcast,130,2011-11-20 07:28:00
1:54 AM,3.9,-0.0,84,30.30,10.0,ESE,4.6,-,N/A,,Overcast,120,2011-11-20 07:54:00
2:27 AM,6.8,1.4,79,30.17,10.0,SE,5.8,-,N/A,,Overcast,130,2011-11-20 08:27:00
2:54 AM,6.1,1.9,83,30.31,10.0,SE,5.8,-,N/A,,Overcast,130,2011-11-20 08:54:00
3:54 AM,7.0,1.9,80,30.30,6.0,ESE,6.9,-,N/A,,Haze,120,2011-11-20 09:54:00
4:41 AM,5.0,1.4,85,30.16,9.0,ESE,4.6,-,N/A,,Overcast,120,2011-11-20 10:41:00
4:51 AM,3.2,-0.4,85,30.15,10.0,ESE,5.8,-,N/A,,Overcast,120,2011-11-20 10:51:00
4:54 AM,3.9,-0.0,84,30.29,10.0,ESE,6.9,-,N/A,,Mostly Cloudy,120,2011-11-20 10:54:00
5:09 AM,3.2,1.4,92,30.16,10.0,SE,6.9,-,N/A,,Scattered Clouds,130,2011-11-20 11:09:00
5:51 AM,5.0,1.4,85,30.16,10.0,SE,4.6,-,N/A,,Mostly Cloudy,130,2011-11-20 11:51:00
5:54 AM,5.0,1.0,84,30.29,10.0,SE,4.6,-,N/A,,Mostly Cloudy,130,2011-11-20 11:54:00
6:54 AM,6.1,1.0,80,30.28,10.0,SE,5.8,-,N/A,,Overcast,140,2011-11-20 12:54:00
7:33 AM,6.8,3.2,85,30.14,10.0,SSE,5.8,-,N/A,,Overcast,150,2011-11-20 13:33:00
7:54 AM,6.8,3.2,85,30.14,10.0,SE,6.9,-,N/A,,Overcast,140,2011-11-20 13:54:00
8:54 AM,10.0,5.0,80,30.26,5.0,SSE,11.5,-,N/A,,Haze,150,2011-11-20 14:54:00
9:40 AM,10.4,6.8,85,30.12,2.5,SE,10.4,-,0.00,Snow,Light Snow,140,2011-11-20 15:40:00
9:54 AM,10.4,5.0,79,30.12,4.0,SE,9.2,18.4,N/A,,Haze,140,2011-11-20 15:54:00
10:18 AM,10.4,5.0,79,30.12,10.0,SE,10.4,-,N/A,,Partly Cloudy,140,2011-11-20 16:18:00
10:54 AM,10.9,6.1,81,30.23,10.0,SE,10.4,-,N/A,,Partly Cloudy,140,2011-11-20 16:54:00
11:28 AM,12.2,6.8,79,30.10,10.0,SE,11.5,-,N/A,,Scattered Clouds,140,2011-11-20 17:28:00
11:54 AM,15.8,8.6,73,30.09,10.0,SSE,13.8,-,N/A,,Partly Cloudy,160,2011-11-20 17:54:00
12:54 PM,17.1,10.0,74,30.18,10.0,SSE,13.8,24.2,N/A,,Partly Cloudy,150,2011-11-20 18:54:00
1:54 PM,19.0,12.0,74,30.15,10.0,SSE,16.1,-,N/A,,Partly Cloudy,160,2011-11-20 19:54:00
2:27 PM,19.4,12.2,74,30.02,10.0,SSE,16.1,-,N/A,,Mostly Cloudy,160,2011-11-20 20:27:00
2:54 PM,19.9,12.9,74,30.12,10.0,SSE,13.8,-,N/A,,Mostly Cloudy,160,2011-11-20 20:54:00
3:12 PM,19.4,12.2,74,30.01,10.0,SSE,13.8,-,N/A,,Scattered Clouds,160,2011-11-20 21:12:00
3:54 PM,21.0,14.0,74,30.10,10.0,SSE,12.7,-,N/A,,Partly Cloudy,160,2011-11-20 21:54:00
4:54 PM,21.2,14.0,74,29.99,10.0,South,12.7,-,N/A,,Clear,170,2011-11-20 22:54:00
5:54 PM,19.4,14.0,80,29.97,10.0,SE,6.9,-,N/A,,Clear,140,2011-11-20 23:54:00
6:54 PM,21.9,15.1,75,30.08,10.0,SSE,5.8,-,N/A,,Overcast,160,2011-11-21 00:54:00
7:54 PM,23.0,16.0,74,30.07,10.0,SSW,20.7,26.5,N/A,,Overcast,200,2011-11-21 01:54:00
8:54 PM,21.9,15.1,75,30.06,10.0,SSW,17.3,-,N/A,,Scattered Clouds,210,2011-11-21 02:54:00
9:54 PM,23.0,15.1,72,30.08,10.0,SSW,12.7,-,N/A,,Overcast,210,2011-11-21 03:54:00
10:54 PM,23.0,15.1,72,30.09,10.0,SW,8.1,-,N/A,,Mostly Cloudy,230,2011-11-21 04:54:00
11:54 PM,24.1,16.0,71,30.09,10.0,SW,8.1,-,N/A,,Overcast,230,2011-11-21 05:54:00